CZ-3C DEB, 48550

Orbit data source: Space-Track

CZ-3C DEB, 48550 is space debris in HEO originally from a launch on Fri, 24 Feb 2012 UTC launched from the Xichang Space Center, China (XSC). Debris objects in space refer to the collection of defunct objects orbiting the Earth. Examples of debris include non-operational satellites, rocket bodies, and fragments generated from explosions, collisions, or faulty payload assembly.

Loading next visibility...
Identifier
48550, 2012-008AV
Orbit
HEO
Country
Flag of CNCN / PRC
Related business
Manufacturer
CALT
Mission
Spacecraft
Bus & Motor
Unknown
Mass
Unknown
Launch date (UTC)
2012-02-24 (14 years ago)
Launch vehicle
Unknown
Launch site
Xichang Space Center, China (XSC)
Object type
Payload
Rocket body
Debris
Shape & HBR
Unknown shape, 0.2 m
Radar Cross Section
Medium (>0.1 m² and <1 m²)

Expand to show TLE details & history
Last TLE update: 2 days ago

TLE from 2 days ago
0 CZ-3C DEB
1 48550U 12008AV  25292.52672463 -.00000253  00000-0  00000-0 0  9999
2 48550  20.3524 254.6760 6953370 149.0355 282.7789  2.24674527 84408
Epoch: 2025-10-19T12:38Z
TLE epoch observation values (Epoch: 2025-10-19T12:38:29.008Z)
Latitude
0.00004°
Longitude
36.71597°
Altitude
25,108.756 km
Speed
3.022 km/s
True Right ascension
16h 58m 18s
True Declination
0° 00' 00"
Sunlit
Object was in daylight at epoch
Visualization orbit readout
Latitude
Unknown
Longitude
Unknown
Altitude
Unknown
Speed
Unknown
Apparent Right ascension
Unknown
Apparent Declination
Unknown
Sunlit
N/A
Visualization observer readout
Local Sidereal Time
15:33:23
Azimuth
Unknown
Elevation
Unknown
Doppler factor
Unknown
Orbital elements
Apogee altitude
35,375.26 km
Perigee altitude
1,125.218 km
Semi-major axis
24,628.376 km
Eccentricity
0.69534
Inclination
20.3524°
RAAN
254.676°
Arg. of periapsis
149.0355°
True anomaly
210.95185°
Mean anomaly
282.7789°
Eccentric anomaly
246.29923°
Mean motion
0.56155 °/min
Orbital period
641.08 mins
BSTAR
0
Loading maneuver chart data...
Computing Atmospheric mass density...
Loading historical data...
Loading historical data...
Loading historical data...
Loading historical data...
Loading historical data...
Loading historical data...
Loading historical data...

Documentation

Showing up to 5 results
|